GFSSW_sfc_thetae_126.txt.gz
Theta_e
310 309 309 309 308 309 309 309 309 309 309 309 309 309 310 310 308 300 296 303 311 320 315 299 300 300 293 291 294 298 289 285 288 291 293 301 299 302 303 300 301 302 301 310 324
309 308 308 308 308 308 308 308 308 308 308 308 308 309 309 310 299 294 308 319 319 320 298 296 294 298 292 287 290 290 284 286 294 296 297 300 300 301 299 301 300 303 306 313 329
309 308 308 308 307 307 307 307 307 308 308 308 308 309 310 305 294 293 317 319 319 311 297 296 296 300 291 286 285 285 284 288 291 295 297 295 297 300 297 297 300 301 303 312 326
309 309 308 307 307 306 307 307 307 308 307 307 308 309 309 297 282 295 315 316 315 300 297 294 292 288 286 286 288 285 288 288 289 291 290 289 293 293 294 296 303 303 304 308 322
309 308 307 307 306 306 306 307 307 307 307 307 309 309 298 286 286 296 309 306 299 298 294 293 290 288 284 285 287 285 286 289 290 290 289 291 289 291 293 298 301 304 304 303 314
308 308 307 306 305 306 306 306 306 306 306 307 308 308 293 282 293 297 299 299 297 295 293 294 291 291 288 287 285 288 288 289 289 289 289 288 289 290 293 298 298 300 301 302 303
308 307 306 305 305 306 306 306 306 306 307 307 308 303 292 287 295 298 300 296 297 296 293 296 294 291 289 286 290 289 285 287 287 286 286 289 284 286 293 296 296 298 299 301 302
308 306 306 305 305 305 305 305 306 307 307 307 308 298 288 298 298 302 298 297 298 296 295 296 295 291 289 290 288 285 283 278 283 286 287 284 281 287 292 292 293 295 298 300 301
307 306 305 305 304 304 305 305 307 309 308 308 297 292 286 302 296 298 299 295 295 295 295 300 295 289 287 282 278 280 275 277 281 285 285 283 281 286 290 291 291 292 294 298 301
306 305 305 304 304 305 306 306 308 307 306 305 301 287 291 290 294 296 295 296 293 293 293 291 286 283 281 279 273 275 276 276 277 281 285 283 283 287 290 289 289 290 292 294 298
306 305 304 304 303 304 301 291 288 287 294 287 287 288 290 293 295 293 295 294 292 291 284 287 282 278 281 282 283 282 280 278 282 286 284 283 284 286 289 289 289 289 290 293 295
305 304 303 303 303 304 297 288 287 288 280 290 291 291 294 293 289 291 295 290 289 284 286 282 279 285 285 284 283 282 279 279 283 286 285 283 283 287 288 288 289 290 290 291 294
304 303 302 302 304 297 292 293 295 293 281 288 293 292 292 293 289 289 293 290 287 284 283 281 284 288 286 283 282 282 280 281 281 284 286 284 282 285 288 289 290 291 292 292 294
304 303 302 302 298 293 291 296 296 294 280 287 289 292 293 293 288 293 295 291 286 283 284 282 286 285 283 282 283 278 285 285 283 281 278 282 273 281 284 284 287 289 290 293 296
303 302 302 302 294 291 295 297 296 293 273 288 288 295 292 288 288 289 294 291 286 285 284 281 284 283 281 283 286 281 287 286 286 283 279 279 275 278 283 282 286 289 293 295 297
303 303 303 300 294 296 297 297 293 279 273 282 286 286 286 288 288 290 292 294 292 286 285 285 288 286 285 288 288 289 287 286 284 279 273 278 275 276 279 283 290 294 298 299 300
302 303 300 298 293 297 296 292 278 274 284 279 281 286 285 284 286 288 287 284 281 278 278 283 285 287 289 285 289 286 281 273 271 270 273 282 278 278 285 290 291 294 297 297 297
303 302 299 298 296 297 294 285 275 281 280 284 284 285 281 284 283 284 284 281 285 283 278 276 273 284 291 287 285 285 284 276 267 272 274 283 277 282 295 298 297 297 296 295 294
302 295 293 293 297 297 288 276 279 279 283 283 284 280 280 282 280 281 279 282 284 284 277 278 277 286 288 290 290 286 283 286 280 281 276 279 285 292 294 293 294 293 292 292 293
293 292 293 297 298 293 283 280 281 286 286 285 279 282 278 278 279 273 279 284 282 284 286 282 276 285 288 293 293 289 290 280 280 272 274 279 280 279 288 288 289 289 289 290 292
293 289 295 299 297 287 277 282 284 287 288 284 281 280 280 280 279 275 279 283 284 284 284 282 281 281 286 286 285 285 285 286 287 283 278 276 280 285 287 290 288 288 290 289 289
291 284 294 297 284 283 281 286 289 286 289 287 286 284 282 282 279 279 281 283 286 284 280 283 282 278 280 288 291 289 287 286 281 280 282 281 278 287 287 287 288 289 290 290 289
288 288 295 294 280 282 286 287 288 286 285 284 284 286 284 281 278 281 281 286 287 284 281 284 280 274 276 282 287 284 286 288 288 287 282 279 278 286 286 286 287 286 288 288 288
287 280 286 288 287 284 282 283 284 288 285 286 284 284 281 279 281 279 280 285 287 286 290 289 282 275 270 275 284 281 286 288 287 282 283 281 279 282 283 283 284 285 286 287 287
285 281 285 279 282 283 283 284 282 282 285 285 282 282 280 277 278 278 281 283 285 289 286 286 278 281 282 284 286 282 282 283 283 285 283 282 279 281 283 284 284 284 285 285 284
284 283 285 284 285 282 284 282 282 282 282 281 281 282 281 279 280 278 280 281 281 284 282 283 278 281 280 286 287 281 282 282 282 283 286 284 280 286 286 285 283 283 283 283 283
289 289 286 284 282 282 282 283 283 284 285 286 283 282 281 283 284 284 285 285 285 282 281 281 280 280 278 284 285 278 280 283 282 283 284 278 283 285 282 281 281 282 282 281 282

GFSSW_sfc_thetae_132.txt.gz
Theta_e
315 313 311 309 309 309 309 309 309 309 310 309 309 310 311 312 312 307 303 309 313 321 319 306 306 307 305 303 307 309 299 297 300 301 302 306 305 309 311 309 311 312 313 316 319
315 313 311 309 309 309 308 308 308 309 309 309 309 311 311 311 306 302 311 320 321 317 305 302 301 304 302 300 302 301 297 297 301 303 301 303 303 304 302 303 304 306 311 316 317
314 312 310 309 309 308 308 308 308 308 309 308 309 311 312 310 301 300 316 318 319 313 306 304 303 302 299 300 299 299 295 299 300 301 300 300 300 302 299 298 302 302 308 310 310
314 312 310 310 309 308 307 307 307 308 308 308 310 311 311 306 292 303 313 313 315 308 304 302 300 297 296 296 299 295 297 298 298 299 298 297 299 297 298 299 303 303 305 306 305
314 312 311 310 309 308 307 307 307 307 307 308 310 311 306 297 297 305 310 312 307 305 302 300 298 296 294 295 295 294 295 296 297 297 297 298 296 296 297 301 303 302 302 303 304
313 312 311 310 308 307 307 307 307 307 307 308 310 310 302 292 302 305 307 305 305 304 302 302 299 299 295 294 293 295 295 296 297 297 297 295 296 297 298 301 300 301 302 303 304
312 312 311 309 308 307 306 306 306 306 307 309 309 307 300 295 304 308 307 304 305 304 300 302 302 299 298 295 297 296 292 295 295 295 295 297 293 295 299 299 299 300 302 303 304
312 311 310 309 308 306 306 306 306 307 308 309 309 305 296 304 308 306 307 304 305 305 303 303 303 300 298 298 296 293 293 290 293 294 295 294 290 297 300 298 298 300 302 303 304
312 311 310 309 307 306 305 305 308 310 310 309 304 302 294 306 301 304 306 301 302 304 304 303 302 298 297 293 292 291 288 289 290 294 294 293 291 297 301 300 299 300 301 302 303
312 311 309 308 307 306 305 307 309 309 307 306 304 297 298 296 300 301 304 302 300 301 300 299 299 295 295 292 286 287 287 289 289 293 294 293 293 297 300 300 300 300 301 302 302
312 311 309 308 306 305 305 307 300 299 301 295 295 294 296 300 301 300 302 301 301 298 294 296 293 290 291 291 291 289 288 288 292 295 293 292 293 296 300 300 299 300 301 302 303
311 310 308 306 305 305 306 298 296 299 293 297 295 295 297 300 295 298 302 297 296 292 294 293 290 292 293 292 290 290 288 289 292 294 293 293 293 297 299 299 300 300 301 302 303
310 309 306 306 305 303 301 299 303 301 292 291 296 295 296 299 294 295 300 297 294 291 292 290 292 293 291 290 289 290 288 289 288 292 295 293 291 294 298 301 302 302 304 306 306
309 307 306 305 299 301 297 304 303 304 289 289 292 296 298 298 292 300 301 297 294 290 291 291 293 290 290 289 290 286 292 291 290 289 286 293 283 292 296 297 297 297 297 296 300
307 307 305 304 300 297 300 305 306 303 278 291 292 302 298 293 295 295 302 298 291 290 291 289 289 289 288 289 291 289 293 292 291 290 287 288 285 290 295 288 289 293 291 291 294
307 306 305 302 300 301 302 305 303 288 277 286 291 291 291 292 293 296 296 299 298 291 292 291 294 292 292 293 293 294 292 293 292 288 281 287 285 289 285 286 287 289 290 289 291
305 304 301 302 297 303 304 299 285 280 289 283 286 290 290 288 290 292 291 290 289 284 284 287 289 293 294 291 294 293 291 285 283 282 281 288 287 284 289 288 289 287 289 288 289
303 303 301 303 302 305 302 291 279 285 285 289 289 289 286 289 289 289 290 288 290 288 286 283 282 290 293 290 290 291 289 284 276 280 283 290 284 287 290 291 290 289 289 288 287
302 298 298 300 304 306 295 283 284 286 287 287 288 285 285 287 288 288 288 288 289 289 283 283 281 289 291 294 295 289 289 292 285 287 282 287 289 292 291 289 289 287 287 285 286
295 294 295 302 305 301 291 285 287 289 290 289 283 286 283 285 285 287 286 290 288 290 290 286 281 287 289 296 296 293 295 286 287 278 277 284 282 281 283 285 286 284 284 285 285
294 288 298 303 304 293 284 286 287 291 292 288 286 284 285 284 286 285 286 289 290 289 290 289 286 286 289 289 288 290 289 288 288 286 281 280 279 285 284 285 284 285 284 285 284
295 285 299 302 289 291 287 289 291 290 292 290 291 288 287 286 285 284 285 288 292 290 286 290 288 283 284 291 293 292 288 289 283 281 286 284 280 288 287 287 286 285 284 285 286
290 288 298 300 285 287 290 288 290 289 289 289 288 289 290 287 283 286 288 291 291 289 289 291 287 282 283 288 292 287 288 288 288 287 283 281 281 288 287 286 286 284 284 284 284
293 284 290 292 293 288 287 286 286 290 289 290 288 290 288 285 287 285 285 288 291 290 290 292 288 283 280 283 286 284 286 287 287 283 283 280 281 283 284 283 284 284 284 284 284
293 287 289 284 287 289 289 287 285 284 289 289 287 287 286 283 284 283 286 287 289 291 292 291 284 286 287 288 287 284 285 285 283 285 283 281 280 282 283 283 284 284 284 284 283
288 289 291 289 291 289 289 287 286 285 287 286 286 287 288 284 284 283 286 288 287 290 289 290 286 287 285 288 287 283 286 286 284 283 284 284 282 287 287 286 285 285 283 282 282
295 294 293 290 290 288 288 288 287 288 289 290 289 287 286 287 290 292 292 291 291 289 289 288 287 285 281 287 285 281 282 284 284 284 283 280 283 286 285 284 283 283 283 281 281

GFSSW_sfc_thetae_138.txt.gz
Theta_e
318 317 316 314 312 311 310 310 310 309 310 311 311 312 313 314 312 311 307 308 311 321 318 310 309 308 308 305 306 307 297 295 299 301 301 307 305 311 311 307 308 309 309 314 316
319 318 317 314 312 311 310 310 310 309 310 310 310 312 313 314 308 306 309 319 319 321 308 305 303 305 302 303 304 301 297 298 303 303 301 304 304 304 302 302 303 305 310 311 312
319 319 317 315 312 311 310 309 309 309 310 310 310 312 314 312 306 304 316 318 319 317 309 307 305 303 300 302 302 301 296 301 302 303 302 301 301 303 300 298 302 302 304 307 307
320 319 317 315 313 312 311 309 309 309 309 309 310 312 313 310 295 306 315 317 318 312 309 305 304 300 299 298 302 298 302 302 301 302 301 299 301 299 300 300 304 305 306 306 306
318 318 317 315 313 312 311 310 309 309 309 309 311 312 311 303 301 307 316 313 308 307 305 303 301 301 297 299 300 297 299 301 302 301 300 301 299 299 299 303 305 305 305 305 306
317 317 316 315 314 313 311 309 308 308 308 308 311 312 308 297 307 308 308 307 307 306 305 305 302 303 298 298 297 300 299 299 300 300 300 298 299 299 300 305 303 304 303 305 306
317 316 315 313 314 313 311 310 309 308 307 308 311 309 304 301 307 309 307 307 307 306 303 305 305 301 302 298 302 300 295 297 299 300 299 300 295 296 303 303 302 303 304 305 307
318 316 314 313 313 312 310 310 308 307 307 309 311 307 299 307 309 307 309 306 307 307 306 306 306 302 300 302 298 295 296 291 299 299 299 298 291 299 303 302 301 303 304 306 307
318 316 313 312 311 311 309 308 307 309 312 312 307 304 297 308 303 306 308 304 305 305 307 306 304 300 301 296 294 297 290 293 295 300 298 296 292 299 303 302 301 304 305 305 305
317 316 313 312 310 308 306 306 311 309 309 309 307 299 302 298 302 305 307 305 301 303 301 302 300 297 297 294 287 291 291 293 292 296 297 295 294 299 301 302 303 302 302 301 302
316 316 313 311 309 307 302 302 299 301 304 299 300 298 300 304 306 302 305 302 302 299 294 299 294 291 295 296 295 293 290 289 293 297 295 294 294 296 302 301 299 299 299 299 300
315 315 313 311 308 305 302 300 296 300 292 303 302 302 303 304 297 300 305 297 297 293 297 295 291 297 297 295 293 292 290 290 294 297 295 293 293 299 299 298 298 296 295 296 296
313 315 312 309 307 302 298 300 304 304 292 297 301 299 300 301 296 298 301 298 296 294 295 292 295 298 295 293 291 292 291 291 290 293 295 293 292 296 299 299 298 296 295 295 294
311 314 310 307 298 298 295 305 304 307 286 295 300 299 299 299 294 302 303 299 296 293 295 294 298 295 293 291 293 288 295 293 291 290 285 294 284 293 295 294 294 293 292 292 292
310 313 308 306 301 295 303 306 305 306 280 298 296 304 300 295 298 297 303 299 293 294 293 292 293 292 291 292 294 290 295 293 292 290 290 291 287 291 293 289 290 291 291 291 291
310 312 307 306 302 302 305 303 304 284 278 293 296 293 293 294 296 298 298 300 300 295 296 293 298 294 294 296 295 296 294 294 294 292 285 290 289 285 287 288 289 291 290 290 290
309 312 306 306 296 304 302 299 282 279 296 291 289 293 292 291 292 294 293 291 289 285 286 291 292 295 296 293 296 295 292 284 284 284 283 291 288 286 290 291 290 289 288 289 289
309 310 307 306 304 303 299 289 279 289 292 297 293 293 289 292 291 292 292 290 293 293 290 286 284 292 296 293 291 293 292 284 278 280 283 290 284 283 292 293 292 291 289 288 288
309 304 302 302 303 300 295 282 285 291 294 292 292 288 288 291 291 291 291 290 293 293 286 287 287 295 296 294 296 293 289 295 287 288 284 287 286 291 290 289 290 288 288 287 287
302 298 299 304 303 298 290 287 291 297 297 294 287 289 285 288 288 290 289 293 292 293 294 290 285 292 292 294 295 293 296 286 289 279 278 284 285 283 284 285 287 286 285 286 287
298 292 298 306 301 292 284 289 294 299 297 293 290 289 290 289 289 288 289 292 295 292 292 292 289 288 291 289 289 292 290 290 289 286 280 279 280 288 284 286 285 285 285 286 286
295 284 300 301 286 288 287 292 297 296 296 294 294 292 291 291 289 288 288 291 296 293 288 293 290 286 287 295 295 293 290 289 283 282 285 283 279 288 288 287 287 286 285 286 287
288 290 299 297 284 284 292 292 295 294 293 292 291 294 294 291 286 289 291 295 295 292 291 293 288 283 284 289 292 290 291 290 289 288 283 281 280 289 287 287 287 286 286 286 285
290 282 289 292 292 289 289 291 290 294 293 294 292 294 292 290 291 288 290 293 293 293 295 295 290 287 283 286 290 287 289 289 288 283 283 282 282 284 284 284 285 286 286 286 285
295 289 290 282 287 291 291 293 289 289 293 294 291 292 291 288 288 287 290 291 291 292 293 293 287 288 289 289 289 288 287 287 285 286 282 283 282 284 286 286 286 285 288 286 285
287 290 291 289 293 291 291 289 288 289 290 289 288 291 292 288 289 287 290 289 287 292 291 293 287 288 286 289 289 286 288 288 287 286 285 285 283 288 290 289 287 287 286 285 284
298 300 295 291 291 289 289 289 289 291 292 293 291 291 290 291 293 295 295 293 294 290 291 291 289 286 283 289 287 282 287 287 286 286 285 282 285 288 287 287 286 285 286 285 285

GFSSW_sfc_thetae_141.txt.gz
Theta_e
320 319 317 316 315 313 312 311 312 311 310 311 311 312 313 315 313 307 303 305 307 319 319 306 305 304 299 297 296 294 288 286 290 291 294 300 299 302 302 299 300 303 301 302 306
321 319 318 317 316 314 313 312 312 310 310 311 311 312 314 314 307 303 312 318 317 319 305 302 299 299 294 293 295 293 287 289 295 293 295 297 296 296 296 295 297 300 303 304 304
321 320 320 318 316 314 313 312 311 310 310 311 311 312 314 312 304 301 317 317 317 316 306 304 302 299 292 292 292 292 289 294 296 296 295 293 294 295 292 291 297 296 299 302 301
321 320 320 319 317 314 313 312 311 310 310 310 310 313 314 308 293 300 317 315 317 312 305 303 299 294 292 290 294 289 295 297 297 298 295 292 295 295 293 295 299 299 301 301 300
319 319 319 319 317 315 313 312 311 310 309 309 309 313 308 302 300 306 318 314 307 305 301 300 297 295 291 293 293 291 293 297 298 297 295 296 293 295 295 298 301 301 301 299 300
318 318 318 318 316 315 313 312 311 310 309 309 309 313 304 296 304 304 306 304 303 301 301 300 298 299 295 294 293 296 295 295 296 296 296 295 294 293 296 300 300 301 297 298 301
318 318 317 317 315 313 312 312 310 310 309 308 309 308 301 299 301 303 306 302 303 302 300 303 301 297 296 294 298 296 292 294 295 294 293 295 290 290 297 300 298 299 301 301 301
319 317 316 316 314 313 312 310 310 309 308 308 310 304 297 307 302 303 303 303 305 304 303 303 302 298 296 297 296 291 290 286 293 294 295 293 287 295 298 298 298 299 299 300 300
317 317 316 314 313 312 309 308 308 308 312 313 305 300 294 307 301 303 303 302 304 304 304 306 301 296 296 290 287 289 283 287 289 293 292 290 286 295 298 300 297 297 296 297 297
314 317 316 314 312 309 305 303 304 306 309 309 306 295 301 297 301 302 301 303 300 300 300 298 295 291 290 287 281 285 285 283 283 288 289 287 286 292 297 297 294 294 294 293 293
313 315 316 313 311 306 301 300 300 300 301 296 297 295 298 303 302 299 302 300 298 295 290 296 290 286 290 292 293 290 287 285 287 292 291 289 288 291 294 294 291 291 291 291 291
312 313 315 313 309 305 301 300 297 299 290 300 301 301 303 300 295 298 300 294 294 288 292 290 288 294 296 295 292 290 287 286 290 294 290 287 286 292 294 292 291 290 290 289 290
311 312 314 311 306 300 298 301 304 304 292 296 301 301 300 300 295 295 297 295 292 290 291 288 292 298 295 292 290 288 287 287 287 290 289 287 285 290 293 293 292 291 290 290 289
310 311 312 307 300 297 294 302 303 306 287 294 298 299 299 298 293 300 300 295 292 289 291 290 295 295 292 290 290 285 292 291 289 285 280 288 277 288 289 289 290 289 288 288 288
310 310 308 308 298 294 299 304 301 303 279 297 299 306 301 293 295 295 300 295 290 291 291 289 293 291 290 291 293 289 294 291 289 285 283 286 280 284 288 285 286 287 287 287 287
310 310 307 306 300 300 303 303 301 285 279 293 297 293 291 292 293 295 295 297 297 291 291 291 296 293 292 295 294 295 291 290 290 286 276 286 284 279 282 284 286 287 286 287 286
309 309 307 306 299 303 303 297 282 279 294 290 290 292 290 288 290 292 291 289 286 284 284 289 290 293 294 290 293 291 286 278 276 277 278 289 283 281 286 288 287 286 285 286 286
307 307 308 307 304 303 299 288 278 286 288 297 291 291 287 290 289 291 289 286 290 289 286 282 279 289 294 291 289 290 288 279 275 275 277 288 279 281 289 290 289 288 287 287 285
306 304 304 306 304 301 293 282 281 287 292 292 290 286 286 289 288 288 288 288 291 291 285 285 285 292 294 294 292 290 285 291 284 284 276 281 283 287 288 287 288 287 286 285 285
302 301 300 307 303 298 289 284 287 293 294 294 287 288 284 286 286 284 287 291 291 294 293 290 283 292 292 291 291 290 292 282 284 276 274 280 280 280 282 284 286 285 284 285 286
301 295 302 305 301 292 284 286 289 296 297 293 291 288 288 286 288 287 288 292 294 290 291 290 287 286 290 287 286 287 287 288 286 281 274 271 275 286 284 285 284 285 285 285 285
299 288 301 301 287 289 286 289 294 293 297 296 294 293 290 288 287 287 287 291 294 291 287 292 289 282 285 291 293 291 290 287 277 279 281 279 275 288 285 285 286 285 283 282 285
292 291 300 298 284 284 289 290 293 293 294 293 292 293 293 290 285 289 290 296 293 291 289 291 285 278 282 286 290 288 289 289 287 285 279 272 273 288 286 285 286 281 282 283 284
287 282 288 292 291 287 287 288 289 295 294 294 292 293 291 289 292 288 289 293 294 293 296 294 288 283 275 280 286 286 288 289 286 279 276 274 277 278 281 281 283 282 283 282 280
290 285 288 282 284 288 289 290 289 288 292 294 291 290 288 286 288 287 290 289 291 292 292 291 284 287 288 289 288 287 288 286 284 284 280 281 279 282 283 282 280 283 283 283 282
286 286 288 287 289 289 289 288 288 290 289 288 288 291 290 287 289 286 289 287 286 290 289 291 284 287 284 289 287 285 287 287 286 286 285 283 282 286 290 290 285 284 282 282 282
295 296 290 287 287 287 286 290 291 291 291 292 291 289 289 291 291 293 292 292 290 288 287 287 285 282 280 287 284 278 282 284 284 285 284 279 282 285 286 285 282 282 283 282 281